Regional Weather Roundup
Issued by NWS Newport/Morehead, NC

Current Version | Previous Version | Graphics & Text | Print | Product List | Glossary Off
Versions: 1 2 3 4 5 6 7 8 9 10 11 12 13 14 15 16 17 18 19 20 21 22 23 24 25 26 27 28 29 30 31 32 33 34 35 36 37 38 39 40 41 42 43 44 45 46 47 48 49 50

000
ASUS42 KMHX 220125
RWRMHX
WEATHER ROUNDUP FOR EASTERN NORTH CAROLINA
NATIONAL WEATHER SERVICE NEWPORT/MOREHEAD CITY NC
900 PM EDT MON AUG 21 2017

NOTE: "FAIR" INDICATES FEW OR NO CLOUDS BELOW 12,000 FEET
WITH NO SIGNIFICANT WEATHER AND/OR OBSTRUCTIONS TO VISIBILITY

NCZ015>017-031-032-045>047-102-103-220200-
NORTH COAST

CITY           SKY/WX    TMP DP  RH WIND       PRES   REMARKS
EDENTON        CLEAR     83  75  79 CALM      30.17S
ELIZABETH CITY CLEAR     81  78  91 SE7       30.17R
KITTY HAWK     CLEAR     78  74  86 CALM      30.17R
MANTEO         PTCLDY    79  74  84 S5        30.18S

$$

NCZ045>047-081-094-103-104-220200-
CENTRAL COAST

CITY           SKY/WX    TMP DP  RH WIND       PRES   REMARKS
FRISCO         CLEAR     78  76  93 CALM      30.18R

$$

NCZ095-097-098-100-101-220200-
SOUTHERN COAST

CITY           SKY/WX    TMP DP  RH WIND       PRES   REMARKS
BEAUFORT       CLEAR     79  77  94 SE3       30.17R
CEDAR ISLAND   NOT AVBL
JACKSONVILLE   CLEAR     79  77  94 S3        30.16R
PINEY ISLAND   CLEAR    N/A N/A N/A SE6       30.17R
WILMINGTON     CLOUDY    80  77  90 S3        30.16S


$$

NCZ011>013-027>030-043-044-078>080-089-090>093-098-220200-
COASTAL PLAIN

CITY           SKY/WX    TMP DP  RH WIND       PRES   REMARKS
AHOSKIE          N/A     74  74  98 CALM      30.17R
CLINTON        CLEAR     80  77  91 CALM      30.17R
ELIZABETHTOWN  NOT AVBL
GOLDSBORO      CLEAR     82  79  92 SE3       30.15R
GREENVILLE     CLEAR     81  73  78 S5        30.18R
HAVELOCK       CLEAR     79  74  84 CALM      30.17S
KENANSVILLE    CLEAR     79  75  89 S3        30.17S
KINSTON        CLEAR     81  73  78 S3        30.17R
NEW BERN       CLEAR     78  74  87 S5        30.18R
RICHLANDS      CLEAR     78  75  90 CALM      30.17R
ROCKY MOUNT    CLEAR     77  76  96 CALM      30.16R
WASHINGTON     CLEAR     79  75  89 SE3       30.17R
WHITEVILLE     PTCLDY    81  77  88 CALM      30.16S

$$

AMZ130-135-150-152-154-156-158-170-250-252-270-ANZ085-086-088-633-658-670-220200-
MARINE OBSERVATIONS

STATION/POSITION TIME  TEMP    WIND        PRES    WAVE   SWELL
                       AIR SEA DIR/SP/G            HT/PER HT/PER
                 (UTC) (F)     (DEG/KT/KT) (MB)    (FT/S) (FT/S)
CHESAPEAKE LIGHT NOT AVBL
64 E VA BEACH    0050   79 80  150/  6/  8 1022.1    2/ 9   2/ 9
DUCK             0100   81 77  150/ 10/ 11 1021.3
2 E DUCK         0100      82                N/A     2/ 8
OREGON INLET     0100   79 86  130/  4/  6 1021.7
13E OREGON INLT  0048      80                N/A     2/10   2/ 7
HATTERAS CG      0100   81 81  140/  3/  4 1021.7
DIAMOND BUOY     0050   83 84   CALM  /  2 1021.6    2/ 9   2/ 9
CAPE LOOKOUT     0100   81     140/  5/  6 1021.3
BEAUFORT LAB     0100   81 81  150/  4/  4 1021.0
30 SE NEW RVR IN 0108   80 84  210/  4/  6 1021.5
30 SE NEW RVR IN 0113      84                N/A     3/ 9   2/11
27 SE WRIGHTSVLE 0108   83 84  190/  6/  8 1021.2
5 SE WRIGHTSVLE  0108   83 83  190/  8/ 12 1020.9
225 S CAPE HAT   0050   83 84  100/  4/  6 1021.5    4/ 8   3/ 8
41 SE CHARLESTON 0110   82     130/  8/ 10 1020.8

$$




USA.gov is the U.S. government's official web portal to all federal, state and local government web resources and services.